Theta_e
350 349 337 352 353 354 353 352 354 354 354 353 353 355 351 351 353 349 335 332 331 333 330 329 324 324 330 336 339 342 344 342 342 342 342 341 341 342 343 342 341 341 341
357 357 357 357 356 356 356 356 351 351 355 352 352 352 352 351 352 342 332 334 331 330 328 326 325 327 331 339 340 342 343 344 341 341 341 341 341 341 341 342 341 341 341
355 356 356 355 359 358 354 356 349 349 346 345 346 350 350 349 347 343 337 335 334 331 328 329 329 329 339 340 341 336 338 339 340 340 340 340 340 340 340 340 341 340 340
354 356 358 359 355 355 352 354 352 352 348 345 343 341 345 350 348 347 343 338 338 333 332 333 332 331 332 329 329 327 330 329 331 333 336 338 339 340 339 338 338 338 338
352 352 357 357 357 355 352 354 353 355 350 340 344 344 347 350 348 348 348 347 340 341 335 336 335 327 335 334 334 334 330 323 322 326 325 329 336 338 339 338 338 336 334
355 356 353 355 359 353 357 351 354 353 347 345 341 344 344 345 350 349 349 348 345 345 342 336 337 331 337 336 333 328 332 332 330 330 325 323 324 330 338 338 338 336 337
352 356 356 347 360 354 356 353 351 352 347 347 344 340 346 342 348 351 349 347 347 345 344 340 339 335 333 335 333 328 332 330 327 329 328 322 321 323 331 338 338 339 335
354 357 355 356 357 359 358 356 347 352 354 347 345 344 340 344 340 350 347 346 346 346 343 341 341 339 335 335 333 330 328 326 324 326 327 323 323 322 324 335 339 338 338
353 356 357 358 362 359 359 358 350 355 350 352 345 344 338 339 338 339 333 337 346 344 344 340 340 339 336 334 330 330 329 326 328 329 326 324 323 323 323 328 336 338 339
354 354 356 355 362 358 360 360 359 349 354 352 348 345 345 341 337 335 337 337 337 339 338 334 333 333 332 331 332 330 329 328 328 327 325 326 327 325 322 324 332 338 337
358 356 355 357 362 361 360 360 360 356 349 352 354 353 349 346 341 336 339 336 336 334 331 329 331 332 331 329 329 328 324 324 324 322 324 326 327 328 324 323 329 334 338
352 354 354 358 358 359 357 359 361 358 354 351 355 352 348 345 344 337 336 335 334 332 331 330 329 329 328 327 325 325 326 325 321 319 319 323 324 326 325 325 329 334 335
348 358 358 358 358 359 355 357 361 360 356 353 352 350 347 346 344 339 337 335 331 332 331 331 330 329 329 327 325 325 326 321 320 319 319 321 322 323 325 326 330 332 335
352 349 359 359 357 356 354 355 362 360 359 356 352 351 341 347 346 341 336 335 330 331 332 330 329 330 327 326 326 326 324 321 320 319 319 320 320 322 325 327 330 331 335
349 354 355 354 355 353 353 353 358 359 359 356 352 355 340 346 344 343 337 335 332 326 330 330 329 329 327 325 325 324 324 323 319 317 317 317 319 324 326 328 330 331 332
354 351 348 351 351 353 352 353 352 355 358 357 354 354 343 347 345 343 336 331 333 331 331 331 329 329 326 325 324 324 324 323 319 320 318 317 319 323 326 327 329 331 331
347 346 345 348 348 352 353 353 353 352 354 357 357 354 347 350 348 342 332 331 332 331 327 328 328 328 327 325 325 324 324 322 323 321 320 319 321 323 325 326 326 328 330
351 352 352 354 355 356 356 356 357 358 357 354 356 356 351 350 348 345 336 334 333 333 331 326 326 326 327 325 324 324 324 323 323 323 323 323 323 323 322 325 325 325 328
356 358 360 361 362 362 361 362 361 361 360 358 356 357 353 351 348 343 333 331 334 333 329 326 327 327 326 325 324 325 324 324 324 323 323 323 323 323 322 323 323 324 326
362 361 361 362 361 360 361 360 361 360 360 358 357 356 353 352 349 346 335 332 333 331 327 326 326 326 326 325 326 327 324 324 323 322 322 322 322 322 323 323 324 324 325
359 357 357 356 355 355 358 357 358 359 358 356 355 356 354 351 349 343 335 334 332 331 326 325 325 325 325 325 326 325 326 324 323 321 321 321 321 320 320 321 323 324 325
347 346 351 351 351 352 351 355 355 357 358 356 355 355 354 348 346 338 330 330 331 334 327 327 326 325 325 325 326 326 325 324 324 323 322 321 321 321 320 321 321 324 324
353 352 353 354 355 356 356 356 357 356 355 355 356 354 348 343 338 332 321 319 327 331 332 329 326 328 327 326 325 325 324 324 324 323 322 322 322 322 322 323 321 324 324
353 353 354 355 356 357 355 354 354 350 351 353 356 354 347 342 334 323 319 322 325 327 330 328 328 328 327 328 328 327 327 325 324 324 323 322 323 323 322 324 324 323 324
352 351 353 355 356 357 354 353 346 348 354 355 355 352 348 343 330 323 325 326 325 327 328 328 328 327 325 325 325 326 328 327 326 325 324 324 325 323 323 325 327 326 324
351 350 355 356 355 355 355 355 353 351 352 356 354 351 348 341 331 330 328 329 324 323 324 323 324 324 323 323 326 326 330 329 327 325 326 326 326 325 324 323 327 325 323
Wind_Speed
6 10 4 6 15 3 7 8 9 12 15 14 15 16 10 14 22 20 20 18 16 11 9 8 7 5 4 5 6 8 11 14 17 17 18 20 20 20 20 19 20 20 21
9 9 2 2 4 6 3 8 4 4 6 14 14 14 17 21 24 20 20 19 13 10 9 8 7 7 6 5 5 4 5 6 9 13 17 18 21 20 20 20 20 22 23
10 13 18 11 14 7 10 4 10 9 10 10 3 13 11 16 24 22 22 20 17 14 9 8 8 8 8 7 6 6 7 7 8 8 9 12 16 20 22 21 22 24 24
13 19 16 18 11 11 6 11 11 8 6 10 3 4 7 16 21 22 22 20 15 11 7 9 8 8 6 8 7 6 6 6 5 5 7 8 12 16 21 24 25 29 23
10 10 10 16 12 13 11 10 6 7 7 16 9 5 6 16 25 25 20 18 17 8 7 8 10 6 5 7 5 6 6 8 7 5 5 6 8 12 16 26 31 31 23
3 8 4 8 10 10 9 11 10 12 7 15 11 7 10 7 21 25 17 18 14 7 8 11 9 7 7 9 10 13 3 4 4 1 2 3 5 7 11 20 28 28 32
1 2 4 2 5 8 6 11 10 13 9 16 16 13 5 9 7 18 18 13 10 8 10 12 14 12 13 14 12 13 12 5 5 6 3 1 2 3 7 12 23 29 32
1 2 6 5 7 6 5 6 10 10 6 9 9 4 4 3 11 12 11 9 10 15 15 14 15 16 17 21 15 19 16 15 6 5 5 1 1 3 5 7 14 23 26
5 3 4 3 1 6 4 1 6 6 8 5 6 5 3 2 3 4 8 12 16 18 18 13 13 13 11 11 17 14 15 13 6 6 5 4 3 4 5 6 9 18 23
9 6 8 2 2 5 4 2 2 5 5 8 1 1 1 4 2 3 1 11 17 20 16 13 10 10 12 13 17 14 13 11 10 9 9 4 2 3 6 6 8 13 21
10 8 10 8 5 3 3 4 5 2 3 4 5 4 4 5 6 2 2 6 15 11 10 9 10 12 13 13 14 11 10 9 10 9 6 5 4 3 4 7 8 10 23
8 18 10 13 6 6 7 7 8 5 3 3 5 5 5 4 1 1 1 2 10 6 8 9 9 11 11 12 13 15 11 8 6 6 5 4 4 4 6 7 8 9 15
12 8 9 10 7 5 7 12 13 10 6 6 4 4 10 14 8 4 1 2 4 5 5 8 8 10 10 12 12 12 11 7 5 4 5 5 5 4 6 9 11 12 12
6 10 6 8 6 7 9 11 14 11 8 7 3 4 3 6 11 9 3 2 2 3 4 5 7 7 10 10 10 11 10 6 3 3 3 3 3 4 6 9 13 13 14
12 2 2 5 5 6 10 15 11 12 12 9 5 8 4 5 10 8 7 5 4 2 2 8 7 10 10 9 10 9 9 6 3 4 3 4 5 6 10 11 15 16 17
11 12 10 9 10 12 13 15 16 13 9 10 8 12 6 7 6 6 5 4 3 3 3 5 5 13 11 9 9 6 8 7 6 2 2 4 6 9 8 11 12 14 16
13 14 14 15 15 15 16 18 17 17 15 14 12 14 8 8 6 6 5 3 2 4 8 4 7 11 11 10 10 7 8 6 5 3 3 5 5 9 10 11 10 11 13
11 13 15 16 18 18 18 20 21 19 18 17 15 15 10 9 10 6 6 4 4 6 11 10 12 11 10 11 10 9 10 9 8 3 4 5 5 7 13 11 12 12 13
13 15 17 19 20 21 22 20 21 21 20 16 15 15 9 12 14 9 4 4 7 12 14 17 13 11 11 14 10 8 13 11 6 2 4 4 5 4 9 12 13 12 14
15 15 16 18 18 18 21 23 22 24 21 15 14 10 10 14 14 10 6 5 12 17 17 19 17 14 12 14 10 11 13 11 9 4 4 5 6 8 9 11 13 14 15
6 6 14 18 15 12 16 19 19 23 19 12 12 11 11 11 13 9 8 8 9 18 20 19 16 9 10 11 11 15 14 11 10 10 9 8 11 12 14 15 16 17 18
15 16 17 17 19 23 15 19 20 18 20 12 14 12 11 11 13 10 7 7 6 10 25 18 14 16 11 11 13 16 13 6 3 6 7 4 8 9 12 16 19 20 21
17 17 18 19 18 18 19 18 17 13 13 12 18 15 15 12 11 11 8 7 9 11 13 22 20 18 15 17 17 14 10 10 6 4 5 3 5 7 10 14 19 24 24
14 16 17 17 18 14 17 13 9 8 10 12 19 18 16 11 12 12 11 12 10 10 11 14 17 18 17 13 11 7 7 10 7 3 5 2 2 3 7 13 18 25 26
16 22 20 17 13 11 10 9 7 11 8 6 10 13 15 11 14 15 15 15 12 15 14 11 12 14 12 10 8 6 1 14 8 7 5 5 3 4 5 10 15 19 28
14 19 17 10 7 8 9 8 9 7 8 3 8 14 16 15 17 18 16 15 13 14 13 11 12 12 10 11 7 4 4 6 5 5 5 7 5 4 4 4 15 19 23
Wind_Direction
248 117 158 178 229 275 222 233 232 225 221 221 239 233 217 189 189 190 187 188 197 198 198 190 170 163 160 211 203 204 220 226 224 218 216 212 207 202 195 194 188 184 184
330 11 171 288 161 21 19 213 221 221 265 232 231 224 215 184 191 191 188 190 202 205 200 195 185 163 158 170 157 154 175 207 227 218 213 211 207 204 195 189 188 184 184
67 61 42 60 27 346 28 107 64 61 35 46 0 214 213 188 183 196 198 195 202 209 205 202 187 161 141 135 149 163 173 179 195 200 209 210 208 203 195 184 180 183 183
15 18 40 34 56 78 49 74 49 54 15 1 338 17 254 196 199 196 197 200 214 203 212 205 184 163 157 159 173 162 167 168 182 184 172 185 191 190 198 190 185 181 187
14 8 47 57 64 39 52 50 55 1 348 4 359 18 11 193 194 198 199 210 209 229 235 201 201 205 172 153 141 122 160 156 152 195 157 172 176 189 192 201 205 203 207
6 360 23 61 74 33 31 38 33 16 10 6 357 321 321 190 192 197 212 215 211 245 248 196 223 182 166 167 175 165 197 131 111 32 187 164 186 181 189 201 205 194 184
235 313 35 32 62 48 40 37 36 22 14 8 5 1 58 76 123 194 199 200 195 165 186 199 207 214 189 204 198 201 187 167 191 228 266 135 168 212 195 198 209 208 205
214 33 19 40 33 357 16 28 32 19 15 9 14 44 8 349 52 146 176 195 185 174 178 188 206 208 203 208 201 196 202 212 213 220 252 258 219 211 207 198 208 206 207
207 266 317 349 52 38 54 96 34 22 5 17 50 66 30 299 333 108 131 134 152 156 161 156 172 196 191 194 180 179 184 193 186 218 261 269 223 221 192 195 201 200 196
225 209 243 223 276 3 355 7 7 20 5 3 294 86 23 252 212 336 62 95 128 133 143 143 143 143 144 159 167 173 182 189 207 219 238 242 238 226 197 187 197 196 193
245 258 243 222 221 277 292 303 305 311 357 314 358 351 297 307 250 175 267 106 101 118 129 123 133 152 157 169 174 192 179 175 192 206 196 175 192 203 185 201 197 191 188
297 284 241 217 228 235 273 283 262 264 247 297 323 334 336 302 206 237 0 30 127 112 112 121 136 146 155 152 160 156 160 176 188 204 211 192 181 199 195 198 201 198 188
330 319 205 192 225 246 275 288 256 253 266 257 290 355 358 325 347 320 80 276 132 170 141 149 161 160 156 162 155 163 170 181 180 191 196 198 195 204 196 196 199 197 193
300 316 234 231 235 257 281 305 276 254 257 243 274 256 357 350 321 291 271 212 322 147 160 158 179 175 155 162 167 172 176 170 209 223 214 219 212 201 185 191 189 194 194
291 14 53 215 261 277 279 282 308 264 257 229 256 219 268 263 270 272 281 282 223 184 133 185 178 189 174 165 176 193 188 183 212 207 239 226 205 186 169 172 189 192 192
269 286 302 292 279 270 278 280 286 289 276 224 245 223 256 264 295 252 256 286 27 168 125 172 174 184 176 166 171 171 195 191 190 208 254 222 191 188 168 170 176 185 191
276 285 281 284 277 273 273 275 279 281 275 274 242 237 248 244 246 241 263 246 111 102 126 125 133 164 174 175 172 180 192 183 182 208 198 178 190 193 188 179 177 178 187
260 269 273 278 281 277 273 271 274 276 277 267 262 250 237 228 218 221 227 195 151 152 143 147 152 170 176 175 174 180 187 201 191 208 194 179 196 205 199 193 194 194 191
256 263 270 276 281 288 287 281 279 277 272 269 259 248 239 222 205 200 191 140 151 155 147 148 148 172 173 167 162 171 176 180 190 184 146 158 173 200 200 202 202 200 193
253 262 275 278 288 289 283 286 278 272 266 259 256 247 237 224 199 201 169 162 151 152 150 148 149 172 178 175 167 170 182 190 199 203 213 220 215 216 214 209 204 193 189
313 335 329 321 307 293 292 294 295 276 273 265 255 241 226 205 200 198 175 171 164 164 163 154 149 169 186 172 178 185 197 216 238 254 259 247 230 230 226 222 215 201 193
317 311 307 305 304 303 290 290 295 290 265 257 235 224 207 190 185 192 169 152 174 157 172 166 171 177 198 194 186 182 186 196 259 256 277 226 223 230 224 221 219 207 198
316 318 312 306 299 298 290 296 295 282 271 258 243 221 177 181 190 189 180 146 138 136 157 188 176 159 148 166 166 175 184 184 212 251 220 236 209 221 217 219 218 204 201
319 317 314 302 303 298 294 314 318 302 291 273 240 222 181 176 185 179 159 143 143 145 142 146 163 157 158 153 160 178 223 208 214 251 212 239 208 211 224 210 210 205 199
343 343 321 316 308 304 310 327 343 335 346 337 243 203 185 191 171 164 155 147 138 126 130 148 155 151 155 171 164 157 338 194 205 204 203 180 180 127 171 186 195 203 198
357 1 353 351 353 321 329 331 335 343 341 254 204 191 191 190 175 169 170 167 154 151 156 160 162 158 157 149 122 81 56 130 160 184 202 186 181 164 111 116 178 186 192